Wind_Speed
9 9 10 10 11 11 11 10 11 11 10 9 8 7 6 4 3 2 2 0 1 1 2 3 3 3 3 3 3 4 4 4 4 5 5 5 6 6 6 7 7 8 9
9 9 9 9 10 10 10 10 10 10 10 10 9 7 6 5 3 3 2 2 1 2 3 4 4 4 5 5 5 5 5 5 5 6 7 7 8 8 8 8 9 10 10
8 9 10 10 10 11 10 10 9 10 10 10 9 8 7 5 4 3 3 3 4 5 5 5 5 6 6 7 7 6 6 7 7 8 9 9 10 11 11 11 11 11 11
8 9 9 10 11 11 11 10 10 10 10 10 9 9 8 6 5 4 4 5 5 5 6 6 7 8 8 8 9 8 9 9 10 10 11 11 12 13 13 13 13 13 14
8 8 9 10 10 10 11 10 10 10 10 10 9 9 8 6 5 5 6 6 7 6 7 7 8 9 9 9 10 10 11 11 12 12 13 13 13 14 14 15 16 16 16
8 8 9 10 11 11 11 10 10 10 10 10 10 9 9 8 7 7 7 7 7 7 7 8 8 9 9 10 11 11 12 12 12 13 13 13 13 14 14 15 16 17 17
8 9 10 12 12 12 12 11 10 10 10 10 10 9 9 9 9 8 8 8 8 8 8 9 9 9 9 10 10 11 11 12 13 13 13 13 13 13 14 15 15 16 17
9 10 11 12 13 13 12 11 11 11 11 10 10 10 10 10 10 9 9 9 9 8 9 9 8 8 9 9 10 10 11 12 13 13 13 13 13 14 14 15 16 16 17
10 10 11 12 13 13 12 12 12 12 12 11 11 11 10 10 10 10 10 10 10 10 10 10 9 9 9 10 10 10 11 12 12 13 14 14 14 14 15 15 16 16 17
12 12 12 13 13 13 13 13 13 13 13 12 12 12 12 12 12 12 12 12 12 11 12 12 11 11 11 11 11 12 12 12 13 13 13 13 14 14 14 14 15 16 17
13 13 13 13 13 13 12 12 13 13 13 14 14 13 13 13 13 13 13 13 13 12 13 13 12 12 12 12 12 12 13 13 13 13 13 14 15 15 15 15 16 17 18
13 13 13 13 13 13 13 13 14 14 14 14 14 14 14 14 14 14 14 14 14 14 14 14 14 13 14 14 14 14 14 14 14 15 15 15 16 17 18 17 17 19 20
14 14 13 14 13 13 13 14 14 14 15 15 15 15 15 15 15 15 15 16 16 16 16 16 15 15 15 15 15 15 15 16 16 17 17 18 19 19 19 19 19 21 22
16 15 14 14 13 14 14 14 14 14 15 15 15 15 15 15 16 16 16 17 17 17 17 17 17 17 17 17 17 17 17 18 18 19 19 19 19 19 20 20 21 22 22
17 16 15 15 14 15 15 15 15 15 15 15 15 16 15 16 17 17 17 16 17 17 17 17 17 17 17 17 18 18 18 18 18 19 19 19 20 20 21 21 21 22 23
18 16 16 16 16 16 15 16 16 16 16 16 15 16 16 16 16 16 16 16 17 17 17 18 18 18 18 18 18 18 17 17 18 19 20 20 21 21 21 22 22 23 24
19 18 17 17 16 16 16 16 16 16 16 16 16 16 17 17 16 16 17 18 18 18 18 18 18 18 18 18 18 18 17 18 19 20 22 22 22 23 23 23 23 24 24
20 20 19 17 17 16 16 17 16 16 16 16 16 16 17 17 17 17 18 18 17 18 17 17 17 17 17 17 17 17 18 18 19 20 21 22 22 22 23 24 24 24 24
21 20 19 18 18 18 17 16 16 16 16 16 16 16 17 17 17 17 18 17 16 16 17 16 16 17 17 16 17 17 18 19 19 20 21 21 21 21 22 23 23 23 24
21 20 19 19 18 17 17 17 16 16 16 16 16 16 17 17 17 17 17 16 16 16 16 16 17 17 17 16 17 18 18 19 19 20 20 20 20 21 22 22 23 24 25
21 20 20 19 18 18 17 17 17 16 16 16 17 17 17 17 17 17 17 17 16 15 16 16 16 17 17 17 17 18 18 19 19 20 19 19 21 22 22 23 24 25 26
22 21 20 19 18 18 18 17 17 17 17 17 17 17 17 17 18 18 17 17 16 16 16 17 17 17 17 17 18 18 19 19 20 20 20 20 21 22 23 23 25 25 25
22 21 21 20 19 19 19 18 18 17 18 18 17 17 17 18 18 18 17 16 16 16 16 17 17 17 18 18 18 19 19 19 20 21 21 22 22 23 24 24 25 25 26
23 22 22 21 21 20 20 20 19 18 18 17 17 17 18 18 17 17 16 16 16 17 17 17 18 18 19 19 19 20 21 20 21 21 22 23 24 24 24 25 25 26 27
24 23 22 22 22 21 21 20 20 19 19 18 18 19 19 18 17 17 17 17 17 18 18 18 19 19 19 20 21 21 21 21 22 23 23 23 23 24 25 26 26 27 27
24 24 23 23 22 22 21 21 21 20 19 19 19 19 19 19 18 17 18 18 18 18 19 19 20 20 21 21 21 22 22 23 23 24 24 24 25 25 26 26 27 28 28
Wind_Direction
14 16 19 21 23 24 24 26 29 30 29 33 39 37 37 40 31 21 3 18 221 253 262 243 239 243 248 248 249 257 259 267 275 283 289 293 294 294 292 293 294 295 295
356 1 6 9 14 16 13 17 22 21 21 22 25 21 21 20 24 9 356 352 318 286 273 272 263 255 258 260 258 266 268 268 276 282 287 294 296 294 294 294 294 293 292
343 348 355 358 1 4 4 5 10 9 9 9 11 11 6 5 10 359 347 341 330 310 294 283 277 271 265 262 262 264 271 272 275 281 285 288 290 291 291 292 292 292 291
333 338 343 349 355 357 359 3 3 359 358 359 359 359 355 348 348 342 329 325 324 311 301 290 281 275 268 267 269 269 274 278 282 284 287 288 288 286 287 291 292 291 290
319 329 338 345 350 351 352 356 358 354 352 350 350 351 349 339 333 329 321 320 320 313 306 300 292 284 272 272 275 276 276 278 282 285 287 288 288 288 286 287 290 290 289
303 316 325 332 335 339 341 345 347 348 346 344 344 344 343 337 331 325 322 319 318 319 315 309 301 294 281 281 281 279 279 278 283 286 285 285 285 286 286 286 290 292 291
291 305 314 320 324 326 330 334 335 337 337 337 336 334 334 335 329 323 322 318 315 311 313 314 299 296 292 289 288 283 283 282 282 286 288 287 287 289 290 289 290 292 293
287 299 304 310 314 314 317 320 323 324 327 329 327 324 325 328 325 319 320 318 316 316 313 313 300 294 299 299 295 289 289 287 285 286 290 292 293 290 291 291 291 291 293
284 292 298 301 306 308 310 312 315 318 320 322 319 318 320 320 322 318 316 315 313 314 311 310 302 297 298 302 300 297 296 295 293 289 289 290 289 290 289 291 292 293 294
277 284 292 297 298 299 304 309 312 313 315 315 316 315 314 314 316 312 310 309 309 310 307 304 302 297 296 296 297 297 294 294 293 293 292 293 292 291 294 297 297 296 295
273 281 286 293 295 296 301 305 308 308 309 310 310 309 310 310 310 307 306 306 308 308 303 299 298 297 296 296 296 297 296 292 291 294 296 297 294 293 292 293 296 295 294
270 278 282 288 292 294 297 300 304 304 305 305 305 304 303 305 307 306 303 301 303 303 302 300 297 297 297 295 295 295 293 294 294 294 294 296 295 294 294 294 297 297 296
266 273 279 285 291 292 295 298 302 302 301 300 302 302 301 301 302 302 299 297 298 299 299 298 295 296 297 295 295 295 293 291 292 295 297 297 297 297 295 296 297 299 300
262 268 275 280 284 289 294 299 302 302 299 296 298 301 301 300 300 299 299 298 295 294 295 296 297 297 296 296 295 294 293 291 290 292 295 298 298 298 298 297 297 300 302
260 265 270 274 278 283 290 295 298 298 297 296 297 298 297 300 300 300 301 299 299 296 294 295 295 295 294 294 296 292 292 291 290 290 292 295 298 299 299 300 300 302 303
257 263 267 270 275 280 285 291 295 294 294 295 296 297 300 302 300 299 300 299 300 299 297 295 293 291 293 292 294 291 288 288 289 291 293 295 295 297 299 301 301 302 302
256 262 268 273 276 281 284 287 292 292 291 293 295 296 298 299 298 296 300 301 301 301 298 297 295 293 295 293 290 289 289 289 291 293 294 295 294 294 297 299 301 301 301
254 260 266 272 276 279 282 285 290 291 289 290 294 296 296 299 299 298 301 302 301 302 301 298 297 296 296 294 292 290 291 292 295 295 295 296 295 296 298 300 302 304 303
252 257 264 269 273 276 279 284 288 290 290 290 293 295 295 298 301 301 302 303 300 301 301 299 296 299 298 295 295 295 293 294 295 297 298 297 296 298 301 302 305 307 306
251 256 262 266 270 273 276 282 286 288 289 289 292 295 296 296 297 299 301 302 301 300 301 301 299 300 301 298 295 298 297 297 297 298 300 299 300 303 303 304 307 308 308
249 254 259 262 267 271 275 280 284 286 288 289 291 293 296 297 297 298 300 300 299 298 298 300 301 301 302 301 300 299 299 300 302 303 303 305 305 306 305 306 308 308 308
248 251 255 259 264 270 275 278 282 283 286 288 289 290 293 296 297 297 296 296 295 296 296 298 300 302 301 301 301 301 301 302 304 306 307 308 309 310 309 309 310 312 312
246 249 253 258 262 267 271 275 279 282 285 287 288 290 292 295 295 295 293 291 293 294 297 299 300 301 302 304 305 305 305 304 306 307 307 309 309 310 312 312 313 315 314
245 249 252 255 261 266 269 273 276 279 282 286 289 291 293 294 294 293 291 290 292 294 297 300 300 301 301 301 303 304 305 306 307 308 308 309 309 309 311 313 313 313 313
244 248 251 255 262 266 269 272 275 276 280 284 287 290 293 294 293 293 293 292 291 293 295 297 298 300 301 302 304 305 305 306 306 307 307 308 310 311 312 313 313 313 313
245 248 250 254 260 264 266 271 273 274 278 281 284 287 290 292 291 291 293 295 295 294 295 296 298 300 302 304 304 304 305 305 305 306 308 309 310 310 311 312 312 312 313
Height
5937 5935 5934 5932 5930 5928 5926 5925 5923 5921 5920 5918 5917 5916 5915 5915 5915 5915 5914 5914 5914 5915 5915 5915 5915 5914 5915 5915 5915 5915 5915 5915 5915 5915 5914 5914 5913 5913 5912 5912 5911 5911 5910
5938 5936 5935 5933 5931 5929 5927 5926 5924 5923 5921 5920 5918 5917 5916 5915 5915 5915 5915 5914 5914 5914 5914 5914 5914 5914 5914 5914 5914 5914 5914 5914 5914 5914 5913 5913 5913 5911 5911 5910 5909 5909 5908
5938 5937 5935 5934 5932 5930 5928 5926 5925 5924 5922 5921 5919 5918 5916 5916 5915 5915 5915 5914 5914 5913 5913 5913 5913 5913 5913 5913 5913 5913 5912 5912 5912 5912 5912 5911 5911 5910 5909 5908 5907 5906 5905
5938 5937 5935 5934 5932 5930 5929 5927 5925 5924 5923 5921 5920 5918 5917 5916 5915 5915 5914 5914 5913 5913 5912 5912 5911 5911 5911 5911 5911 5910 5910 5911 5910 5910 5909 5909 5908 5907 5906 5905 5904 5903 5902
5938 5937 5935 5934 5932 5931 5929 5927 5925 5924 5923 5921 5920 5918 5917 5916 5915 5914 5914 5913 5912 5911 5911 5910 5910 5909 5909 5909 5909 5908 5908 5908 5908 5907 5907 5906 5905 5904 5903 5902 5901 5899 5898
5937 5936 5935 5934 5932 5931 5929 5927 5926 5924 5923 5921 5920 5918 5917 5915 5914 5914 5913 5912 5911 5910 5909 5909 5908 5908 5907 5907 5906 5906 5905 5905 5905 5904 5903 5903 5902 5901 5899 5898 5897 5896 5895
5936 5935 5934 5933 5931 5930 5929 5927 5925 5924 5922 5921 5919 5918 5916 5915 5914 5913 5912 5911 5910 5909 5908 5907 5906 5906 5905 5904 5903 5903 5902 5902 5902 5901 5900 5899 5898 5897 5896 5895 5893 5892 5891
5934 5934 5933 5931 5930 5929 5927 5926 5924 5923 5921 5920 5918 5917 5915 5914 5913 5912 5910 5909 5908 5907 5906 5905 5904 5903 5903 5902 5901 5900 5900 5899 5898 5897 5897 5896 5895 5894 5892 5891 5890 5888 5887
5933 5932 5931 5930 5929 5927 5926 5925 5923 5921 5920 5919 5917 5916 5914 5913 5911 5910 5909 5907 5906 5905 5904 5903 5902 5902 5901 5900 5899 5898 5897 5896 5895 5894 5893 5892 5891 5890 5889 5888 5886 5885 5884
5930 5930 5929 5928 5927 5925 5924 5923 5921 5920 5918 5917 5915 5914 5912 5911 5910 5908 5907 5906 5904 5903 5902 5901 5900 5899 5898 5897 5897 5896 5895 5893 5892 5891 5889 5889 5888 5886 5885 5884 5883 5881 5880
5927 5927 5926 5925 5924 5923 5922 5921 5919 5918 5916 5915 5914 5912 5911 5909 5908 5906 5905 5904 5902 5901 5900 5898 5897 5897 5896 5895 5893 5892 5891 5890 5889 5887 5886 5885 5884 5883 5882 5880 5879 5877 5876
5924 5924 5923 5923 5922 5921 5920 5919 5917 5916 5914 5913 5911 5910 5909 5907 5905 5904 5902 5901 5900 5898 5897 5896 5895 5894 5892 5891 5890 5889 5888 5887 5886 5884 5883 5882 5881 5879 5878 5876 5875 5873 5871
5921 5921 5920 5920 5919 5918 5917 5916 5915 5913 5912 5910 5909 5907 5906 5905 5903 5901 5899 5898 5897 5895 5894 5893 5891 5890 5889 5888 5887 5886 5885 5883 5882 5881 5879 5878 5876 5875 5873 5872 5870 5868 5866
5917 5917 5917 5917 5916 5915 5914 5913 5912 5910 5909 5907 5906 5905 5903 5902 5900 5898 5896 5895 5893 5892 5890 5889 5888 5887 5885 5884 5883 5882 5880 5879 5878 5877 5875 5874 5872 5870 5869 5867 5865 5863 5860
5913 5914 5914 5914 5913 5912 5911 5910 5909 5907 5906 5904 5903 5901 5899 5898 5896 5894 5893 5891 5889 5888 5886 5885 5884 5882 5881 5880 5879 5877 5876 5875 5874 5872 5871 5869 5867 5866 5864 5862 5860 5858 5855
5908 5909 5910 5910 5909 5909 5908 5906 5905 5904 5902 5901 5900 5898 5896 5895 5893 5891 5890 5888 5886 5884 5882 5881 5879 5878 5877 5876 5874 5873 5871 5870 5869 5868 5866 5865 5863 5861 5859 5856 5854 5852 5849
5904 5905 5905 5905 5905 5904 5903 5902 5901 5900 5898 5897 5896 5895 5893 5891 5889 5887 5886 5884 5882 5880 5878 5877 5875 5874 5872 5871 5870 5868 5867 5866 5864 5863 5861 5859 5857 5855 5853 5851 5848 5846 5843
5898 5900 5900 5901 5900 5900 5899 5898 5897 5895 5894 5893 5892 5891 5889 5887 5885 5884 5882 5880 5878 5876 5874 5873 5871 5869 5868 5866 5865 5864 5862 5861 5859 5858 5856 5853 5851 5849 5847 5845 5842 5839 5837
5893 5894 5895 5896 5895 5895 5895 5894 5893 5891 5890 5889 5888 5887 5885 5883 5882 5880 5878 5876 5874 5872 5871 5869 5867 5866 5864 5862 5861 5859 5858 5856 5854 5853 5850 5848 5846 5843 5841 5839 5837 5834 5831
5888 5890 5890 5891 5891 5891 5890 5889 5889 5888 5886 5885 5884 5882 5881 5879 5877 5876 5874 5872 5870 5868 5867 5866 5864 5862 5860 5858 5857 5856 5854 5852 5850 5848 5845 5843 5840 5838 5836 5834 5831 5828 5825
5883 5885 5885 5886 5886 5886 5886 5885 5884 5883 5882 5881 5880 5878 5877 5875 5873 5872 5870 5868 5867 5865 5864 5862 5860 5859 5857 5855 5853 5852 5850 5848 5846 5843 5840 5838 5836 5833 5831 5828 5825 5822 5819
5878 5880 5881 5881 5882 5882 5881 5881 5880 5879 5878 5877 5876 5874 5873 5871 5869 5867 5866 5865 5863 5861 5860 5858 5856 5855 5853 5851 5849 5848 5846 5844 5841 5839 5836 5834 5831 5828 5825 5822 5819 5816 5813
5873 5875 5876 5876 5877 5877 5877 5876 5876 5875 5874 5873 5871 5870 5869 5867 5865 5863 5862 5860 5859 5858 5856 5854 5853 5851 5849 5847 5845 5843 5841 5839 5837 5834 5832 5829 5827 5824 5820 5817 5814 5811 5807
5868 5869 5870 5871 5872 5872 5872 5871 5871 5870 5869 5868 5867 5866 5864 5862 5861 5859 5857 5856 5855 5854 5852 5850 5849 5847 5845 5843 5841 5839 5837 5834 5832 5830 5827 5824 5821 5818 5815 5811 5808 5804 5801
5862 5864 5865 5866 5866 5866 5866 5866 5866 5865 5864 5863 5862 5861 5860 5858 5857 5855 5853 5852 5851 5850 5848 5846 5845 5843 5841 5839 5837 5834 5832 5829 5827 5824 5822 5819 5816 5813 5809 5805 5802 5798 5795
5856 5858 5859 5860 5860 5861 5861 5861 5860 5860 5859 5858 5857 5856 5855 5853 5852 5851 5849 5848 5847 5845 5844 5842 5840 5838 5836 5834 5832 5829 5827 5824 5822 5819 5816 5813 5809 5806 5803 5799 5795 5792 5788